Theta_e
318 322 323 323 322 320 318 319 319 319 319 318 319 320 320 320 318 318 318 315 315 317 318 318 318 317 318 318 317 318 319 318 318 318 318 318 319 319 318 318 318 318 318 317 318 319 319 319 318 319 318 318 317 317 318 318 318 317 316 315 315 315 315 314 314 314 314 314 313 313 313 313 313 313 313 313 313 312 312 312 311 313 313 316 319 320
318 322 324 321 320 319 319 319 319 318 318 318 318 319 319 319 318 318 317 316 315 317 318 317 317 317 317 318 318 318 318 318 317 317 318 318 318 319 318 319 318 318 317 317 318 318 318 318 318 318 318 319 318 318 318 318 318 318 317 316 316 315 315 315 314 314 314 314 314 314 313 313 313 313 313 313 313 312 312 312 311 311 313 314 315 317
320 321 321 319 319 319 319 319 318 318 318 319 319 319 320 321 320 317 317 316 315 317 318 318 318 317 316 317 316 316 317 317 317 317 318 318 318 318 319 318 319 318 318 318 318 319 319 318 318 318 318 318 318 318 318 318 318 318 318 318 317 316 315 315 315 314 314 314 314 314 313 313 313 312 313 312 312 312 311 311 311 311 312 314 313 318
321 319 318 318 318 319 319 318 318 318 318 320 320 319 321 323 321 318 316 317 316 316 317 318 318 317 317 318 317 316 316 316 317 318 317 318 318 318 319 319 319 319 319 319 319 319 319 319 319 318 317 317 317 317 317 317 317 318 318 318 318 318 317 316 315 315 315 314 313 313 313 313 313 312 313 312 312 312 312 311 312 311 312 314 313 317
319 317 316 317 318 319 318 318 318 318 318 321 322 320 321 322 320 319 318 317 317 318 319 320 321 321 320 320 319 318 318 317 317 318 318 319 319 319 319 318 319 319 319 319 320 320 320 320 320 319 318 318 317 317 317 317 317 317 318 318 318 318 317 317 316 315 314 314 313 313 313 313 313 312 312 312 312 312 312 311 312 312 311 313 313 313
317 315 315 317 317 318 318 318 320 320 318 319 323 323 320 319 319 320 321 320 317 318 320 319 322 326 323 318 318 317 320 321 319 319 319 319 319 318 319 318 317 318 318 319 319 320 321 320 320 319 318 318 317 317 317 317 316 317 317 317 317 317 317 317 316 315 314 314 314 313 313 313 313 313 313 313 313 312 312 312 312 313 311 312 313 312
316 315 317 319 320 321 320 318 321 322 317 317 322 323 319 318 321 320 320 320 319 320 321 318 320 323 319 314 316 317 318 321 321 320 319 319 320 319 318 319 318 318 318 318 319 319 319 320 319 319 318 317 317 316 317 317 317 317 317 317 317 317 317 317 316 316 315 315 314 314 313 314 313 313 313 313 313 312 312 312 311 312 311 311 312 313
316 317 320 321 321 323 321 319 321 320 317 319 324 323 319 318 322 322 320 321 322 322 321 319 318 321 319 315 316 319 319 320 321 321 319 318 319 319 319 319 319 320 320 320 319 318 318 318 317 317 317 316 316 316 316 317 317 317 317 317 317 316 316 316 316 316 315 315 315 314 313 313 313 313 313 312 313 312 311 311 311 311 311 311 312 314
317 320 322 321 321 322 320 320 324 320 318 322 324 322 321 321 323 324 321 322 323 322 324 324 321 323 325 319 316 319 318 319 320 321 320 317 318 319 319 320 320 320 321 319 318 318 318 318 317 317 317 317 316 317 316 317 317 317 317 317 317 316 316 315 315 315 315 315 314 314 314 313 313 312 312 312 312 312 311 311 311 311 311 311 313 315
318 318 318 320 321 321 318 318 322 323 320 321 321 321 323 323 323 323 322 322 322 324 326 327 323 322 325 321 316 317 318 318 321 321 321 319 319 320 320 320 321 320 319 318 318 319 319 318 318 318 318 318 317 317 317 317 317 317 317 317 317 317 316 315 315 315 315 315 314 314 314 314 313 313 312 312 312 312 311 311 311 310 311 311 313 315
315 313 314 318 318 317 316 315 319 322 320 319 321 323 323 323 323 322 323 321 321 324 325 326 323 319 322 323 317 317 319 320 321 320 321 321 320 320 320 319 319 318 318 318 319 319 320 319 319 319 319 318 318 318 318 318 318 318 318 318 318 317 317 317 316 316 316 315 315 315 315 314 314 313 312 312 311 311 311 311 310 310 310 311 313 315
316 316 316 316 315 315 316 317 317 318 319 320 323 322 320 322 322 321 322 321 321 323 323 323 323 320 321 323 319 317 319 320 320 319 321 323 320 319 318 318 318 319 319 319 320 319 319 320 319 319 319 318 318 318 319 318 319 319 318 318 318 318 318 318 317 317 317 317 316 316 315 315 314 314 313 312 311 311 311 311 310 310 310 311 312 314
320 320 318 316 314 315 318 321 319 317 320 322 321 319 318 319 321 322 324 326 324 321 319 320 320 320 320 319 319 320 319 318 318 318 320 320 320 319 319 318 318 319 319 319 319 319 319 319 319 319 318 317 318 318 318 318 318 319 319 318 318 318 318 318 318 318 317 317 317 316 316 315 314 314 313 312 311 310 310 310 310 310 310 310 311 313
320 322 320 317 316 315 317 321 319 319 320 320 320 321 321 318 318 321 322 325 324 320 320 320 319 320 319 316 319 320 317 317 317 317 319 318 319 319 319 320 319 318 319 319 319 319 319 319 318 318 317 317 318 318 318 319 318 319 318 318 318 318 318 318 318 318 318 317 317 317 316 315 314 314 313 312 312 311 310 310 309 310 310 310 310 313
320 322 321 318 317 316 316 318 318 319 319 318 318 320 322 319 317 318 319 321 323 321 320 319 320 323 320 316 319 319 316 318 317 317 319 317 318 318 317 319 319 319 319 318 319 319 318 319 318 318 317 317 317 318 319 319 318 319 318 318 318 318 318 318 318 318 317 317 317 317 316 316 315 314 314 313 311 311 310 310 310 309 309 309 309 312
317 320 320 317 316 315 316 317 316 318 319 318 319 319 321 320 317 317 319 319 320 320 320 321 322 323 320 317 317 317 316 317 317 317 318 317 318 317 316 317 317 318 318 318 319 318 318 318 318 317 317 316 317 319 319 319 319 318 318 318 318 318 317 317 317 317 317 317 317 316 316 316 315 315 314 314 313 312 311 310 310 309 309 309 308 310
318 320 320 317 315 314 315 317 316 318 320 320 320 321 321 321 317 317 320 318 317 317 319 321 321 318 315 316 317 316 316 315 315 316 315 316 317 316 316 316 316 317 318 317 318 317 317 317 316 317 316 317 318 319 319 318 318 318 318 318 317 317 317 317 317 317 317 317 316 316 316 315 315 315 315 315 314 313 312 311 310 309 309 309 308 310
319 320 319 317 317 315 314 315 315 315 318 322 323 321 320 321 320 318 319 319 319 317 317 317 315 313 312 315 318 317 316 316 316 316 315 315 316 316 317 316 316 318 318 318 318 317 317 316 316 317 317 318 319 318 319 318 318 318 318 318 318 318 318 318 318 318 317 317 317 317 316 316 315 315 314 315 314 314 313 312 312 310 309 309 308 309
318 317 317 316 316 316 314 315 317 316 316 319 320 318 319 322 322 320 317 316 317 317 317 316 315 314 313 314 316 315 317 319 318 318 317 316 317 317 317 318 318 318 318 318 318 317 317 316 317 318 318 319 319 318 318 318 318 318 318 318 318 318 318 317 318 318 318 318 318 318 317 317 316 315 315 315 314 314 313 313 312 311 310 310 308 309
317 316 318 315 314 316 316 317 320 319 317 317 318 318 320 321 321 321 318 315 316 315 316 316 315 315 314 314 315 315 318 319 318 320 320 317 317 318 318 318 317 317 317 317 317 317 317 317 317 318 318 318 318 318 318 318 319 318 318 318 317 317 318 317 317 317 317 317 317 317 318 317 317 316 315 314 314 314 313 313 313 311 310 309 308 308
317 315 318 316 314 317 318 317 317 318 318 318 319 320 321 320 320 322 320 317 317 316 315 315 315 314 314 315 317 316 318 320 321 323 322 317 316 317 317 316 316 316 317 317 317 317 317 317 317 318 318 318 318 319 319 318 318 317 317 317 317 317 317 317 317 317 317 317 317 317 317 317 317 317 316 315 314 314 313 313 312 311 310 309 308 307
316 315 318 318 316 317 318 316 315 316 317 316 316 317 318 318 319 320 319 318 318 317 316 316 316 315 314 317 319 317 319 322 321 321 319 316 315 315 315 316 316 316 315 315 316 317 317 317 317 317 318 318 318 318 319 319 317 317 317 317 317 317 317 317 317 317 317 317 317 317 317 317 317 317 316 315 315 314 314 313 312 311 310 309 308 306
316 315 317 320 319 317 316 316 315 316 318 318 317 316 316 317 318 318 318 319 320 318 317 318 319 316 315 318 320 316 316 318 316 315 315 315 315 316 316 316 315 315 315 314 316 316 317 317 317 317 317 318 319 318 319 318 317 317 317 317 318 317 317 317 317 317 317 317 317 317 317 317 317 317 317 316 316 315 314 313 312 311 310 309 308 306
316 317 317 317 318 317 316 317 316 316 317 319 320 318 317 317 317 318 319 320 322 322 320 319 319 317 315 317 316 313 313 315 314 315 315 315 316 316 316 316 315 315 315 315 316 316 316 317 316 316 317 317 318 318 318 318 317 317 318 317 318 317 317 317 317 317 317 317 317 317 317 317 317 317 317 317 316 316 314 312 311 311 310 309 308 306
316 318 318 317 317 318 318 319 318 318 318 318 319 319 319 319 320 321 320 319 319 322 323 321 319 317 315 316 316 314 315 315 314 315 315 315 316 315 316 316 315 315 315 315 316 316 316 317 316 316 317 317 318 318 318 317 317 317 318 318 318 317 317 317 317 317 317 317 317 317 316 317 317 317 317 317 317 316 314 312 311 310 310 308 308 307
319 319 318 316 317 318 319 321 321 320 318 318 319 319 319 321 322 322 322 320 319 319 320 319 318 316 315 315 316 315 315 315 314 315 315 315 315 315 316 315 315 315 315 315 316 316 316 316 315 316 317 318 318 318 317 317 317 317 317 317 318 317 317 317 317 317 317 317 317 316 316 316 316 317 317 317 317 316 314 312 311 310 309 308 308 306
320 319 317 317 317 316 317 320 321 321 319 318 319 319 319 319 321 321 321 321 319 318 318 317 317 317 316 315 315 314 315 315 314 314 315 315 315 316 315 316 316 315 315 316 316 316 316 316 315 316 317 318 318 318 317 317 317 317 317 317 317 317 317 317 317 317 317 316 316 316 316 316 316 316 317 317 316 315 314 312 311 310 309 308 308 307
320 317 316 317 317 316 316 316 317 318 318 318 318 318 318 318 319 321 320 319 318 318 318 317 317 317 316 315 315 315 314 315 314 314 314 315 316 316 316 316 316 316 316 316 316 316 315 315 315 315 316 317 318 318 318 317 317 317 317 317 317 317 317 317 317 317 317 316 316 316 316 316 316 316 316 316 316 315 314 312 311 310 309 308 308 307
320 317 316 316 315 315 315 314 315 316 316 316 317 318 318 319 319 319 319 318 318 318 317 316 317 318 316 315 315 315 314 314 314 314 315 315 315 316 316 316 317 317 316 316 316 316 315 315 315 315 315 316 317 318 318 317 317 317 317 317 317 317 317 317 317 317 317 316 316 316 316 315 315 315 316 316 316 315 314 313 311 310 309 308 308 307
317 316 315 315 315 315 315 314 315 315 315 315 316 317 317 319 319 318 318 317 317 318 317 317 317 316 315 315 315 315 314 314 314 314 315 315 315 315 316 316 316 316 316 316 316 316 316 315 315 315 315 315 315 316 316 316 316 317 317 317 317 316 316 316 317 316 316 316 316 316 316 315 314 315 315 316 316 315 314 312 311 310 309 308 308 307
315 316 315 315 315 315 315 315 315 315 316 316 316 316 317 317 318 318 317 317 318 318 317 317 317 316 315 314 314 314 314 314 314 314 314 315 315 315 315 315 316 316 316 316 316 316 316 316 315 315 315 315 315 315 315 315 316 316 317 317 317 316 316 316 316 316 316 316 316 315 315 315 314 314 315 315 315 315 314 312 310 310 308 308 307 307
314 315 315 315 315 316 315 315 315 315 316 316 316 316 316 316 317 316 316 317 318 318 318 317 317 316 315 314 314 314 314 314 314 314 314 315 315 314 315 315 315 316 316 316 316 316 316 315 316 316 315 315 315 315 315 315 315 316 316 316 316 316 316 316 315 315 315 315 315 315 315 314 314 314 314 315 315 314 313 311 310 309 308 307 307 306
314 315 315 315 316 316 315 316 316 315 316 317 316 316 315 315 316 315 316 316 316 317 317 317 317 316 315 315 314 314 314 314 314 314 314 314 314 315 315 315 315 316 316 316 316 316 316 316 316 315 315 315 315 315 315 315 315 315 315 315 316 315 315 315 315 315 315 315 314 314 314 314 313 313 314 314 314 313 312 310 309 309 308 307 307 306
313 314 315 315 316 316 316 316 316 316 317 317 317 316 315 315 315 316 316 316 315 315 316 316 316 316 316 315 315 315 315 314 314 314 314 315 314 314 315 315 315 315 315 315 315 315 315 315 315 315 315 315 315 315 315 315 315 315 315 315 315 316 315 314 314 314 314 314 314 314 314 313 313 313 313 313 313 312 311 310 309 308 307 306 306 306
313 313 314 315 315 316 316 316 316 317 317 316 315 315 315 314 315 316 316 315 315 315 316 316 315 315 315 315 315 315 314 314 315 315 315 315 314 315 315 315 315 315 315 315 315 315 315 315 315 315 315 315 315 315 315 315 315 315 315 316 316 315 315 314 314 314 314 313 313 313 313 313 312 312 312 312 312 311 310 309 308 307 306 306 306 305
313 313 313 314 314 315 316 316 316 316 316 315 315 315 315 315 316 316 317 316 315 315 316 316 315 315 314 314 314 315 315 315 315 315 315 315 315 315 315 315 315 315 315 315 315 315 315 315 315 315 315 315 315 315 314 315 315 315 315 316 315 315 314 313 313 313 313 313 313 313 312 312 312 312 312 311 311 310 309 308 307 306 305 305 305 305
312 313 313 313 314 314 314 314 314 315 315 314 314 314 315 316 317 317 317 316 315 315 316 316 316 316 315 315 315 315 315 315 314 315 315 315 315 315 315 315 315 315 315 315 315 315 315 315 315 315 315 315 315 314 314 314 314 315 315 315 315 314 313 313 313 313 313 313 313 313 312 311 311 311 311 310 309 309 308 306 305 305 304 304 304 304
312 312 313 313 313 313 314 314 314 314 314 313 313 313 313 313 314 316 317 317 316 315 314 314 315 314 313 313 313 313 314 316 316 315 315 315 314 315 315 315 315 315 315 314 314 315 314 314 314 314 314 314 314 314 314 314 313 313 313 313 313 313 313 313 313 313 313 313 313 312 311 311 310 310 309 309 308 307 306 305 304 303 303 303 303 303
312 312 312 312 312 313 313 313 313 313 313 313 315 314 312 312 313 314 316 317 315 310 308 309 311 310 309 308 309 310 314 317 316 314 313 313 312 312 313 313 313 313 314 313 313 314 313 313 313 313 313 313 313 314 314 314 313 312 312 312 312 312 312 312 312 312 312 312 312 311 310 310 309 309 308 307 306 305 305 304 303 303 302 302 302 302
311 311 312 312 312 313 312 312 313 312 312 314 316 313 311 312 312 314 316 316 310 305 305 307 308 308 308 308 308 310 313 314 313 312 311 311 311 312 312 312 312 312 313 313 313 313 313 313 313 312 312 312 313 313 313 313 313 312 312 311 312 312 312 312 312 312 311 311 310 309 309 308 308 307 307 306 305 304 303 303 302 301 301 301 301 301
311 311 311 312 312 312 312 312 312 312 312 314 314 311 310 312 314 315 314 311 306 304 304 305 306 307 308 308 308 309 310 310 310 310 310 310 311 311 312 312 312 312 312 312 313 312 313 313 313 312 312 312 312 313 313 313 313 312 312 311 311 311 311 311 311 311 310 310 309 308 308 307 307 306 305 305 304 303 302 302 301 301 300 300 299 300
311 311 311 311 311 311 312 312 312 312 312 312 311 310 310 313 315 312 309 306 304 304 304 304 305 307 308 307 307 308 308 309 309 310 310 310 310 311 311 311 312 312 312 313 313 313 313 313 313 313 312 312 312 312 313 313 312 312 312 312 312 311 311 311 310 310 309 309 308 308 307 307 306 306 305 304 303 302 302 301 300 300 299 299 299 299
311 310 311 312 312 312 311 311 312 313 310 308 309 311 311 311 311 308 305 304 305 305 304 304 305 306 307 307 306 307 307 308 309 310 310 310 310 310 311 311 311 311 312 312 313 313 313 313 313 313 313 312 312 312 312 313 312 312 312 311 311 311 310 310 309 309 308 308 308 307 307 306 306 305 304 303 302 301 301 300 300 299 298 298 299 299
309 309 310 311 313 313 312 311 312 311 308 306 307 309 308 307 307 306 305 305 305 305 305 305 305 306 306 306 305 305 306 308 309 310 310 310 310 310 310 310 310 309 310 311 312 312 313 313 313 313 313 312 312 311 312 312 311 311 310 310 310 309 309 308 308 307 307 307 307 306 305 305 304 303 302 302 301 300 300 299 299 298 298 298 298 299
308 308 308 309 310 311 311 311 311 308 305 305 305 306 305 305 305 305 305 305 305 305 305 305 305 305 305 305 305 305 305 306 308 309 309 310 309 309 308 308 308 308 308 309 310 311 311 311 312 312 312 312 311 311 311 310 310 310 309 309 308 308 307 306 306 306 306 305 305 305 304 303 302 301 301 300 299 299 299 298 298 298 298 298 298 298
306 305 306 307 310 309 308 307 307 306 304 304 304 304 304 305 305 305 305 305 304 304 304 304 305 305 305 305 305 304 305 305 307 308 309 309 308 308 308 308 309 309 309 309 309 309 309 309 309 310 311 311 310 310 309 309 309 309 308 308 306 306 305 305 305 305 305 304 304 303 303 302 301 300 300 299 298 298 298 298 298 298 297 298 298 298
304 305 306 308 308 308 307 306 306 305 303 302 302 302 303 304 305 305 305 304 304 303 303 304 305 304 304 304 304 304 304 305 306 307 308 308 308 307 307 308 308 309 309 309 309 308 308 308 308 308 309 309 309 308 308 308 308 307 307 306 305 304 304 303 303 303 303 303 303 302 301 301 300 300 299 298 298 298 297 297 297 297 297 298 298 298
304 304 305 306 306 306 306 305 304 302 301 301 301 302 303 303 304 303 303 303 303 303 303 304 304 304 304 303 304 304 304 305 306 306 307 308 308 308 308 308 308 309 309 309 309 308 308 307 307 306 307 307 307 307 306 306 306 305 305 304 303 303 302 302 302 302 302 302 302 301 300 299 299 299 299 298 298 298 297 297 297 297 297 297 297 297
302 302 303 304 303 303 303 302 301 301 302 301 301 301 301 301 301 302 302 303 303 303 303 303 303 303 302 303 303 304 304 305 306 306 306 307 307 308 308 308 308 309 309 309 309 308 307 307 306 306 306 306 305 305 304 304 303 303 303 302 302 302 302 302 301 301 302 302 301 300 300 299 299 299 299 298 298 297 296 296 296 296 295 295 295 294
301 301 302 302 302 301 301 301 301 302 302 301 300 300 300 300 300 302 303 303 303 302 302 302 302 301 302 303 303 304 304 305 305 305 306 306 307 307 307 307 308 308 309 308 308 308 306 305 305 305 305 304 303 302 302 301 301 301 301 301 301 301 301 301 302 302 302 301 301 301 300 300 300 299 299 299 299 298 297 295 294 294 294 294 294 294
301 301 301 302 302 301 300 300 299 300 299 299 299 300 300 300 301 302 302 302 302 301 301 302 302 302 302 302 303 303 303 304 304 304 305 306 306 306 306 306 307 307 308 308 308 307 306 304 304 304 304 303 302 301 301 300 300 300 300 300 300 300 300 301 302 302 302 302 301 301 301 301 300 300 299 299 298 298 297 296 294 293 293 293 294 295
Wind_Speed
4 2 2 2 4 5 6 7 4 3 5 4 3 2 1 1 1 3 3 2 3 1 5 7 8 10 10 10 11 17 18 16 17 19 21 22 23 25 25 27 29 29 30 28 26 26 26 26 25 23 21 22 23 22 22 22 22 23 26 30 31 31 32 33 34 34 33 33 32 33 33 34 34 34 35 36 36 34 32 32 32 33 33 34 35 33
3 2 4 6 4 1 1 3 1 4 4 4 4 4 4 2 0 4 3 1 1 2 4 6 8 10 9 9 12 16 14 15 19 20 22 25 25 26 27 29 30 29 28 26 25 26 27 27 27 26 26 26 27 27 27 27 25 24 26 28 30 31 32 34 35 35 35 33 32 31 32 32 34 35 36 36 36 34 33 33 33 32 33 34 35 35
2 3 5 4 2 4 5 5 5 4 3 3 2 2 3 2 1 4 3 0 1 0 4 5 7 10 10 9 13 17 17 20 25 26 26 27 26 26 28 30 29 26 25 24 24 25 26 28 28 28 29 30 31 31 31 31 28 27 28 28 28 30 31 33 34 35 35 34 33 32 31 32 33 35 36 35 35 34 34 34 34 33 33 35 36 35
2 4 4 2 4 3 3 4 4 3 2 1 1 1 2 1 1 1 1 1 2 2 3 5 7 10 10 9 13 22 28 26 26 27 27 26 25 27 29 29 26 23 23 22 23 24 25 26 27 28 28 29 31 32 33 33 31 30 30 29 29 29 30 32 34 35 35 35 35 34 33 33 33 34 35 34 35 35 35 35 34 33 34 36 37 37
3 1 0 3 2 1 2 2 2 1 1 4 5 4 4 2 2 2 2 2 4 1 3 4 6 7 6 5 7 13 19 20 20 22 24 24 25 28 30 30 27 24 24 22 21 22 24 25 25 24 24 25 26 27 28 30 30 30 30 30 31 30 31 32 33 35 36 37 37 37 36 35 35 35 36 36 36 37 36 35 34 33 34 37 39 38
2 0 0 4 3 2 3 3 4 5 3 3 5 4 4 4 1 4 4 3 2 2 2 2 3 5 4 4 7 8 6 9 13 16 18 21 24 27 30 30 28 26 25 24 22 22 23 24 23 23 23 23 23 21 20 21 24 27 29 30 31 32 33 33 34 35 36 37 38 38 38 38 37 37 37 37 37 37 37 35 34 33 33 37 39 39
2 1 1 3 5 4 2 2 4 6 2 3 3 3 3 3 3 3 2 1 0 3 3 2 2 4 8 8 8 6 6 7 8 10 14 19 22 25 28 27 24 23 22 22 21 21 23 24 24 24 25 23 22 20 18 18 20 22 25 28 30 32 33 34 35 36 37 37 38 38 39 38 38 37 37 36 36 36 36 35 33 32 32 35 38 39
2 3 2 2 4 4 3 2 2 6 4 2 3 5 4 2 3 2 1 2 2 2 2 2 4 2 8 9 4 2 6 8 8 8 10 17 24 25 24 21 18 16 15 15 15 16 19 22 23 22 21 19 18 18 19 20 19 19 21 24 27 30 32 34 35 36 37 37 37 38 38 39 39 38 38 37 36 35 35 35 34 33 33 35 37 39
2 4 3 3 4 2 4 1 2 3 3 2 3 2 2 3 4 3 1 2 1 3 3 3 3 2 5 10 6 1 5 9 9 10 10 16 24 24 19 15 13 12 13 13 12 11 13 15 16 15 13 12 12 13 15 17 19 19 20 21 24 26 29 32 33 34 35 35 36 37 38 38 39 39 38 37 37 36 34 34 34 33 34 35 36 38
2 2 1 3 4 2 3 2 4 1 3 3 4 1 4 3 3 2 1 0 2 1 4 5 5 3 4 8 8 3 4 7 8 8 6 6 9 11 12 12 12 12 12 12 10 8 8 8 8 8 5 5 6 8 10 12 15 17 19 21 22 24 26 28 30 32 33 34 35 36 37 38 38 38 38 37 37 37 35 34 35 35 35 35 36 37
2 2 2 1 2 3 5 4 5 4 4 5 4 3 3 2 3 2 1 3 1 3 4 7 10 6 4 5 7 4 4 5 4 4 0 4 5 6 9 10 10 10 9 10 9 7 6 6 6 5 4 3 3 4 6 8 11 13 16 18 20 22 24 25 27 29 30 32 33 34 35 36 36 37 37 37 37 37 36 34 35 36 36 36 36 37
1 2 1 1 3 6 6 4 5 5 3 3 2 3 2 1 3 2 1 3 1 4 2 3 4 5 6 6 5 5 3 3 2 1 3 6 5 5 6 7 7 8 9 10 10 8 8 8 8 6 3 2 4 6 8 10 11 13 15 16 18 19 21 22 24 25 27 29 30 32 33 33 34 34 35 35 35 35 36 35 34 35 37 37 37 38
2 3 2 3 2 4 5 4 4 5 3 0 1 4 3 1 1 1 1 1 3 5 2 3 3 2 7 6 5 8 8 6 5 4 3 5 7 6 4 4 6 8 10 11 11 10 9 9 9 7 5 6 8 10 12 14 15 16 16 16 17 18 18 19 20 22 23 24 26 27 29 30 31 32 33 34 34 34 35 35 35 35 36 37 38 39
1 1 3 4 1 6 6 4 3 1 2 4 4 5 4 3 2 4 4 2 3 3 3 4 2 3 5 3 7 10 13 14 10 5 4 2 4 5 4 5 8 10 12 13 13 11 11 11 11 10 8 9 11 12 14 15 16 15 15 15 15 16 16 17 18 19 20 20 21 22 24 26 27 29 30 32 33 34 34 36 36 35 35 36 37 38
3 3 4 5 4 9 8 6 7 5 5 7 5 5 5 5 4 4 3 3 3 1 3 4 1 3 2 2 5 4 6 12 11 8 8 10 11 9 7 7 11 14 15 15 14 13 13 13 14 15 13 13 13 13 15 15 15 14 13 12 12 12 13 14 14 15 16 17 17 19 21 22 24 25 27 29 31 32 34 36 36 35 35 35 35 36
5 4 5 5 8 15 11 9 9 6 3 5 3 3 5 4 2 1 2 3 2 1 2 2 3 5 3 6 8 7 10 11 12 12 12 13 12 9 10 13 16 18 17 17 17 16 16 17 19 21 22 19 15 15 15 14 12 11 10 9 8 8 9 10 11 12 13 14 15 17 18 20 21 22 24 27 30 31 33 35 36 35 35 35 34 34
5 2 1 2 5 11 7 6 6 4 3 3 3 4 4 1 2 2 2 1 4 2 4 3 6 6 3 8 10 11 14 13 11 11 11 12 12 13 17 20 20 19 16 15 17 17 19 20 21 22 21 19 16 15 14 12 11 9 8 7 6 5 6 7 8 10 11 12 14 15 16 18 19 20 22 24 26 28 30 33 35 34 34 34 33 33
5 2 2 1 2 3 1 1 0 3 3 4 4 4 1 3 2 2 1 2 1 5 4 3 8 8 3 6 5 3 8 8 7 9 11 15 15 15 18 19 18 14 12 13 15 16 19 20 19 16 15 15 15 14 13 11 10 9 7 6 6 5 6 6 8 9 11 13 14 15 15 16 18 19 20 22 23 25 27 29 32 33 33 33 33 32
4 2 3 3 1 1 3 2 1 3 5 4 2 1 2 1 1 2 2 2 3 4 4 5 8 7 7 7 4 4 6 7 7 8 9 10 10 10 12 13 14 13 12 14 15 16 16 16 14 13 13 14 14 14 13 12 11 9 8 8 7 6 6 7 9 11 13 14 16 16 17 17 18 19 19 21 22 23 24 26 28 30 31 31 32 32
2 3 3 3 4 1 2 0 5 1 3 4 4 3 2 2 3 3 3 2 3 4 5 7 6 6 8 5 3 7 8 7 7 6 5 3 2 4 7 11 15 15 14 14 15 16 14 12 13 14 14 14 14 14 14 14 12 10 10 8 7 6 7 9 10 11 13 14 16 18 18 18 18 19 20 21 22 23 23 24 25 27 28 29 30 31
2 2 3 2 4 0 1 4 7 7 4 1 1 2 2 1 1 0 2 2 3 3 4 5 7 8 7 2 4 6 3 2 4 5 5 6 9 12 15 19 18 15 15 17 19 18 16 14 15 15 16 15 16 17 16 16 14 12 11 9 8 8 9 10 11 13 14 14 16 18 18 19 19 20 21 22 22 23 22 23 24 25 26 27 28 30
3 3 4 2 1 3 5 6 6 7 8 8 6 7 7 5 3 1 4 3 3 3 4 4 6 11 6 4 3 3 7 6 7 7 5 10 14 17 18 18 15 13 18 23 24 21 17 17 17 18 20 19 19 20 19 18 16 14 12 10 10 11 11 12 13 15 16 16 17 18 18 18 19 20 23 24 24 23 22 24 24 25 26 27 29 30
2 3 3 3 4 4 3 2 2 1 2 3 5 6 7 6 5 5 5 4 2 3 4 2 5 13 9 5 3 2 2 3 4 5 11 15 14 12 12 14 16 18 22 25 25 21 17 18 19 18 19 21 22 22 21 20 18 15 13 12 12 12 12 14 15 16 18 18 18 19 19 18 18 21 25 26 26 24 23 24 25 25 27 28 29 30
2 2 3 2 1 1 2 2 2 3 3 1 4 4 4 4 5 5 4 3 2 3 4 3 5 14 12 2 1 9 10 12 14 12 13 15 13 12 13 15 18 20 22 24 23 19 18 19 20 21 22 22 25 26 24 22 19 16 15 14 14 14 14 15 17 17 19 19 20 20 20 19 19 22 26 27 28 26 24 24 25 26 27 28 29 30
2 2 3 3 1 1 2 2 3 3 1 2 4 3 4 5 3 3 2 1 2 5 7 5 6 12 14 5 4 6 4 6 9 9 10 13 14 15 17 18 19 20 22 24 22 18 16 18 21 27 32 28 28 29 26 23 20 19 18 18 16 16 17 17 17 18 19 20 21 21 21 21 21 23 26 28 29 28 26 25 25 25 26 28 29 30
2 2 3 5 6 6 3 2 3 2 1 2 3 5 8 8 6 4 2 3 5 8 8 7 7 10 16 16 12 9 8 7 6 8 12 15 18 20 21 21 21 21 22 24 22 17 15 17 21 28 33 31 30 30 27 25 23 23 22 21 20 19 19 18 18 19 20 21 23 23 22 22 23 25 26 27 29 29 27 26 26 25 26 27 29 31
2 1 2 3 6 6 4 2 2 4 4 4 7 8 9 8 8 6 3 5 7 7 8 9 10 12 20 23 19 16 16 11 5 9 16 20 22 24 23 23 23 23 24 22 19 17 15 17 21 27 32 33 33 32 31 29 28 27 26 24 23 22 21 19 19 20 22 23 24 24 24 24 25 26 26 28 30 30 29 27 27 26 25 27 29 31
4 2 4 4 7 7 5 6 5 3 2 6 8 8 9 9 8 7 7 10 8 6 10 12 12 14 18 20 21 21 18 10 5 9 15 17 20 22 22 23 22 21 21 18 17 19 21 23 26 29 32 33 34 36 36 35 33 31 30 29 27 24 23 21 21 23 24 24 25 25 25 25 26 27 27 29 31 31 30 28 27 27 27 27 28 30
4 3 5 5 8 10 9 10 9 6 5 5 6 7 7 8 10 10 12 14 11 9 11 12 12 14 15 17 21 22 17 13 12 14 17 20 23 25 25 22 19 18 19 19 23 27 29 30 31 30 30 31 33 37 38 39 39 37 35 34 31 28 25 24 24 26 26 26 27 27 27 27 28 28 28 30 32 33 32 30 28 28 28 28 28 29
4 4 6 6 7 11 12 11 10 9 9 9 9 10 8 7 9 12 14 15 14 13 13 15 17 18 16 15 18 24 28 27 25 25 26 27 28 28 26 24 23 24 25 27 32 33 33 34 33 31 31 32 34 37 38 40 42 42 42 40 36 32 29 28 29 28 28 29 29 28 29 30 30 30 30 31 33 35 33 30 28 28 29 29 28 29
4 4 6 7 5 10 13 13 12 10 11 11 11 11 11 12 12 12 12 11 10 13 15 17 17 18 18 15 16 27 38 34 27 26 29 31 30 27 26 26 28 30 32 34 36 36 36 37 37 36 35 36 38 39 40 41 42 43 45 45 42 40 35 33 32 31 31 31 31 30 31 31 31 31 30 32 34 36 34 31 28 28 29 28 27 28
3 2 3 6 4 7 9 11 12 10 8 9 11 13 16 17 16 15 12 9 10 13 14 14 13 13 15 14 14 23 31 28 24 26 30 34 34 28 24 26 30 34 36 38 38 37 38 39 38 38 38 38 40 40 41 41 42 43 44 44 45 45 44 40 37 35 35 34 32 32 31 31 32 32 31 32 35 36 35 31 28 28 29 28 27 28
4 3 3 5 4 7 8 8 7 6 4 6 11 16 20 19 16 14 12 13 16 15 11 11 11 11 12 13 14 18 21 20 23 29 32 35 36 32 26 27 33 38 39 39 39 39 40 41 41 41 41 40 40 40 40 41 42 43 43 44 45 45 46 46 41 37 37 35 33 31 30 30 31 32 32 33 35 36 34 32 29 28 28 27 26 26
4 4 3 4 3 6 8 4 4 4 7 8 9 12 15 16 16 16 16 19 20 15 11 11 11 11 13 14 17 20 20 22 29 36 39 39 37 34 32 34 38 41 40 41 42 43 44 45 45 44 43 42 41 40 39 38 40 42 43 44 44 41 39 42 41 38 37 34 31 29 29 30 31 32 33 34 34 35 33 31 29 27 27 26 25 25
5 5 4 3 2 4 3 3 4 7 8 8 7 8 12 15 17 18 19 21 20 15 14 15 15 16 18 22 27 29 29 31 35 39 44 46 42 34 35 41 43 41 42 43 45 46 46 46 46 45 44 43 42 41 39 37 38 40 41 42 41 36 33 34 36 36 34 31 30 29 30 30 31 32 33 33 33 33 32 30 28 26 26 25 25 25
5 5 3 3 3 2 2 4 7 5 3 6 8 7 10 13 13 14 15 17 16 14 13 13 16 19 22 28 33 33 33 34 34 38 47 49 39 31 35 43 44 40 40 42 42 43 43 42 42 42 41 41 40 40 40 37 35 36 37 38 36 33 31 32 33 34 32 31 32 31 30 30 30 31 32 32 32 31 30 29 27 25 25 25 25 25
7 4 2 3 4 3 5 7 6 6 8 10 11 8 6 6 6 7 9 11 11 12 14 14 16 18 20 27 32 32 31 25 20 32 45 37 24 26 34 39 39 37 37 39 38 38 39 38 37 37 35 35 35 36 38 36 33 33 34 35 34 34 33 34 34 33 32 32 32 30 29 28 28 28 29 29 29 29 28 26 25 23 23 24 25 25
9 7 5 4 4 4 6 7 6 7 9 10 12 12 10 10 10 7 5 8 7 6 6 6 8 10 11 15 21 23 21 13 7 21 34 24 17 24 33 36 37 37 37 37 36 36 36 36 36 36 34 32 32 34 36 36 34 33 34 35 35 36 36 35 33 31 31 31 31 28 26 25 25 25 25 25 26 25 25 23 22 21 21 22 23 23
12 9 7 5 5 5 7 7 7 8 8 7 9 9 7 9 10 7 4 7 3 5 11 10 7 9 10 13 18 17 10 6 4 15 29 29 27 30 34 36 38 38 36 35 34 35 36 36 37 38 34 32 32 33 35 37 35 33 33 33 34 34 33 32 30 30 31 29 27 24 23 22 22 22 23 23 23 22 21 20 20 19 19 20 21 21
9 8 7 6 7 8 9 8 6 6 6 7 9 6 2 3 1 3 5 4 4 10 12 10 7 10 12 16 17 11 4 6 9 20 36 42 39 38 37 39 41 40 38 38 37 38 39 39 41 41 36 33 34 34 36 37 35 33 31 31 31 32 32 31 31 30 27 25 22 21 21 20 20 21 21 21 20 20 19 18 18 18 18 19 19 20
4 6 7 7 8 11 11 9 6 6 6 8 11 9 5 1 2 4 5 2 9 18 16 9 7 8 10 14 14 8 11 18 23 32 41 43 42 43 41 42 43 43 42 41 40 41 41 41 42 41 38 37 36 34 35 36 34 32 30 30 31 32 31 30 28 25 23 22 21 20 19 19 19 20 19 19 18 18 17 17 16 16 17 18 18 19
4 3 5 7 9 9 9 8 8 6 4 4 6 6 2 3 4 4 3 5 12 21 23 18 11 5 5 12 15 17 23 29 32 35 39 40 42 43 42 43 45 45 45 45 44 43 43 43 42 40 39 38 35 31 32 33 32 30 29 29 29 28 27 25 24 22 21 20 19 18 18 18 18 18 17 17 17 17 16 16 16 16 17 17 18 18
4 3 3 5 6 5 7 8 7 5 2 7 6 3 3 1 3 3 6 11 15 19 24 26 18 8 5 12 18 24 30 33 35 36 37 38 40 41 41 41 41 42 44 45 45 46 46 46 44 42 41 39 33 30 29 29 28 27 27 27 25 24 24 23 21 20 19 18 18 18 17 17 16 16 15 16 16 16 15 16 16 17 17 17 18 18
4 5 4 4 3 3 6 5 3 5 2 7 6 1 3 6 7 6 7 12 16 18 21 25 24 18 15 18 22 26 30 33 35 36 36 37 39 40 41 41 40 41 42 42 43 45 45 46 45 44 42 38 32 29 27 26 26 25 25 25 24 24 23 21 19 18 17 17 17 16 15 15 14 14 14 14 14 15 15 16 16 17 17 17 17 17
7 6 3 2 3 3 4 5 4 5 3 5 5 4 7 10 11 9 7 8 13 18 19 22 27 28 26 25 25 27 31 33 34 35 36 37 38 38 38 39 39 40 41 41 42 42 42 42 42 42 40 36 31 28 26 26 26 25 24 24 23 22 21 19 18 17 16 15 15 14 14 13 13 13 13 13 14 14 15 16 16 16 16 17 17 17
6 3 2 0 3 4 4 5 5 2 3 9 12 12 12 12 11 9 7 8 13 20 21 23 27 31 32 30 27 27 31 34 35 36 36 36 36 35 34 34 35 36 37 39 40 39 39 38 37 36 35 33 31 28 26 26 26 26 25 23 22 21 19 18 17 16 15 14 13 13 13 13 13 13 14 14 14 14 15 15 15 16 16 17 17 17
3 2 2 1 2 4 3 1 2 1 6 13 18 18 14 12 11 9 10 14 18 22 23 24 25 29 34 35 31 29 31 33 34 36 37 36 35 35 35 35 36 36 37 38 38 37 35 34 32 31 30 30 30 28 26 26 26 25 23 21 20 19 17 16 16 14 14 13 12 12 13 13 14 14 15 15 15 16 16 16 15 16 16 17 17 17
2 4 2 1 3 4 4 4 7 13 17 17 16 14 12 14 16 16 18 19 21 22 24 26 27 30 33 37 36 34 33 33 33 34 37 37 35 35 37 39 39 38 38 38 37 35 32 29 28 27 27 28 28 27 26 25 24 23 21 19 18 16 15 15 14 13 12 11 11 12 13 13 14 15 15 16 17 16 16 16 16 16 15 15 14 14
5 3 1 3 2 4 6 8 12 16 13 9 9 12 17 21 24 24 24 23 22 24 26 29 32 33 33 36 38 35 34 34 33 33 35 36 36 36 38 38 39 39 37 37 36 33 30 28 26 25 26 26 26 25 24 23 21 20 19 17 16 14 13 13 12 11 10 10 11 12 13 14 14 15 16 17 18 17 17 16 15 14 13 13 12 11
6 3 4 4 4 5 5 4 6 6 4 7 14 20 23 25 26 25 25 24 25 27 31 33 35 34 34 35 36 35 35 36 36 34 33 35 36 37 38 38 39 38 35 34 34 33 29 26 24 24 24 24 23 22 20 19 19 18 16 14 13 11 11 11 11 10 10 10 11 12 13 14 15 15 16 17 18 18 18 16 14 13 11 11 11 12
8 6 5 4 4 5 8 11 14 11 9 15 22 24 24 24 26 26 27 28 30 32 33 32 31 34 37 37 36 36 37 38 38 36 35 35 35 35 36 37 38 37 34 32 33 32 28 24 23 22 22 20 20 19 18 17 17 16 14 13 11 10 9 9 9 8 8 9 10 12 13 14 15 16 17 17 17 17 18 18 18 16 14 13 13 14
Wind_Direction
157 148 165 210 223 212 222 224 229 0 24 19 8 357 325 1 22 88 92 339 341 326 243 242 253 259 261 262 264 267 267 256 247 245 244 244 245 246 248 249 248 246 250 253 252 253 257 259 260 256 245 235 231 235 241 245 247 245 243 241 241 240 237 236 236 237 238 238 239 240 240 241 240 241 242 245 248 249 249 248 246 243 240 235 228 227
144 172 209 213 224 210 237 223 120 44 19 12 3 356 351 326 76 77 84 241 14 11 266 273 278 270 267 271 273 269 265 258 251 248 248 248 249 250 250 251 252 252 253 253 249 248 250 252 252 252 248 242 240 244 248 251 251 249 246 244 244 243 241 240 239 240 241 242 243 244 246 245 243 243 244 247 249 251 251 250 250 246 240 235 230 227
141 219 225 203 132 73 49 41 47 24 5 20 22 355 325 284 143 72 66 310 84 193 274 312 304 280 273 269 269 263 254 249 246 243 245 247 248 249 251 253 254 254 253 250 246 244 245 247 248 249 249 249 249 251 253 254 251 248 246 245 245 244 244 244 243 243 244 245 246 246 247 247 246 246 247 249 250 252 252 251 250 247 240 236 233 229
160 217 224 115 88 85 58 44 36 14 5 352 201 208 271 248 83 29 353 305 227 218 294 327 308 282 271 257 255 253 248 248 248 245 245 246 247 250 253 255 253 251 249 245 243 243 243 244 247 250 253 253 252 252 252 252 250 248 246 246 246 246 247 247 246 246 245 245 245 245 246 246 247 248 249 249 249 249 250 249 249 247 240 236 236 231
151 173 187 92 91 161 114 90 108 150 249 226 212 211 230 229 121 121 57 300 242 256 356 331 306 283 262 241 259 260 249 244 242 243 243 242 243 249 252 254 252 248 246 243 240 241 242 244 249 255 256 256 255 254 254 253 251 250 248 246 246 246 247 247 247 246 245 244 245 244 244 244 245 246 247 247 247 247 248 248 247 247 241 237 238 236
170 42 176 125 129 176 161 168 181 188 229 235 215 211 237 277 1 101 70 10 332 332 308 359 335 291 293 290 289 297 271 241 230 228 232 235 239 246 249 252 254 252 248 243 238 237 242 246 251 255 255 254 256 256 256 254 250 248 247 246 245 245 246 246 246 246 245 245 246 246 246 247 247 248 250 250 250 250 250 251 250 248 243 238 239 239
135 106 1 112 127 130 156 223 191 176 206 265 265 337 331 326 33 85 63 32 3 281 247 123 85 280 304 297 269 271 275 260 242 230 228 232 238 245 248 252 255 256 253 246 238 233 238 246 250 252 254 256 258 256 250 246 244 244 245 245 245 246 246 247 246 246 247 247 247 248 249 250 252 253 255 256 255 254 253 253 252 250 245 239 239 239
105 135 48 65 117 118 147 223 197 170 173 251 281 335 346 71 103 135 139 193 212 324 296 168 144 235 293 283 242 196 280 277 263 253 238 235 242 246 249 251 252 251 250 245 239 233 232 239 246 251 256 259 258 253 246 242 241 242 244 246 246 246 247 247 248 248 248 249 250 251 252 253 254 254 256 257 257 256 255 253 251 248 244 240 238 237
34 149 158 137 141 138 153 206 299 175 157 234 255 317 9 84 105 136 145 220 167 29 310 224 160 185 265 276 280 219 256 269 263 258 249 243 246 246 241 237 233 233 237 241 242 238 229 230 241 253 259 260 254 249 247 242 240 242 244 247 247 248 249 249 250 251 252 253 254 254 255 256 256 256 256 257 258 258 255 253 250 246 243 241 238 235
23 148 202 144 156 168 125 48 336 31 128 197 203 95 64 82 73 71 118 115 62 16 252 202 174 224 255 264 278 271 234 251 257 254 251 240 233 221 208 207 217 226 231 232 228 227 226 220 230 245 245 237 237 240 243 242 241 244 246 249 251 251 252 252 253 255 255 256 256 257 257 258 259 259 259 259 259 260 258 253 249 245 243 241 237 235
71 61 343 36 128 131 118 79 17 40 108 153 164 118 98 117 68 32 79 84 47 270 247 198 186 208 268 251 244 247 218 217 242 265 234 93 109 152 179 198 218 228 222 212 209 204 199 193 191 189 174 173 211 231 238 243 244 247 249 251 254 254 255 257 258 259 260 260 260 260 260 261 261 262 261 260 259 260 259 254 249 246 244 241 237 235
131 82 15 132 126 127 117 75 31 34 82 123 148 131 120 32 48 17 355 75 242 251 270 255 193 196 247 244 229 252 251 177 185 233 131 118 137 171 187 208 221 221 213 206 205 198 191 190 184 176 183 239 269 267 259 257 253 251 252 254 256 258 260 262 263 265 265 265 265 265 265 265 265 264 263 262 260 260 260 258 252 248 246 243 238 235
188 198 139 111 155 170 137 83 42 7 358 140 161 121 110 306 22 333 241 159 230 240 270 325 358 244 246 241 244 277 285 262 226 217 183 137 160 179 185 223 242 232 226 219 210 203 200 202 200 205 246 281 283 275 265 260 257 255 256 257 261 263 265 268 269 271 271 270 270 270 269 269 267 266 264 264 262 261 260 259 255 251 248 245 241 237
220 286 121 99 323 212 189 137 125 285 234 192 171 140 147 176 203 237 225 212 235 247 295 325 347 270 276 268 233 243 256 257 253 236 228 207 221 246 252 256 260 250 241 232 220 214 217 221 224 230 256 283 284 275 264 259 257 259 260 262 265 267 269 272 275 277 277 277 277 275 274 272 269 268 266 265 264 262 261 260 257 254 251 248 245 241
203 284 182 169 178 186 198 193 171 159 177 200 186 162 177 174 192 214 188 213 228 244 310 316 292 213 224 291 242 253 285 276 277 272 265 274 275 276 271 265 262 253 245 236 226 226 233 235 238 242 259 279 278 267 259 256 256 258 261 262 265 269 271 274 278 281 283 284 283 280 278 276 273 272 270 267 265 262 262 261 259 257 254 251 249 243
198 248 185 165 163 169 186 207 183 135 149 223 202 186 217 202 186 184 165 188 162 25 295 249 250 221 210 282 279 294 305 289 281 281 278 274 276 289 296 289 276 261 251 241 234 237 243 247 253 258 265 270 265 255 251 250 250 251 253 258 263 269 273 278 282 285 286 286 285 284 283 281 278 276 274 271 268 265 262 262 261 260 257 254 250 244
178 245 77 92 153 168 181 213 188 135 164 211 178 202 218 136 117 167 257 38 100 263 262 188 255 276 302 292 269 253 262 261 262 274 277 274 279 293 292 291 287 273 261 254 250 250 252 257 264 266 262 256 250 245 242 239 238 239 239 245 253 260 266 275 281 285 289 290 292 291 288 286 283 280 279 278 276 272 266 262 261 260 257 254 251 244
160 206 309 51 152 184 14 348 282 47 79 137 175 212 122 40 32 132 225 350 124 246 266 186 249 280 298 277 278 268 265 262 250 249 260 268 272 279 285 295 302 295 285 283 278 272 268 267 267 260 249 243 240 235 230 226 225 223 222 228 237 248 258 272 283 292 300 299 299 297 294 291 288 286 285 284 282 278 271 266 262 260 258 254 251 244
156 190 290 351 354 304 23 46 210 22 52 106 192 252 95 120 260 141 175 240 212 238 272 254 257 268 248 247 300 312 266 248 235 221 226 245 261 283 299 311 318 315 312 310 306 298 289 278 265 254 245 239 233 225 221 220 217 215 220 229 236 247 264 279 290 297 301 302 301 298 295 294 292 291 290 288 286 283 278 273 267 262 259 255 252 245
148 177 239 324 328 310 42 169 199 182 36 33 353 345 89 146 182 173 189 202 190 211 252 272 278 260 241 230 235 247 237 217 208 195 176 151 38 350 334 325 322 321 322 328 328 319 307 281 259 254 251 240 228 222 219 219 218 218 222 227 235 252 267 276 284 289 293 297 298 295 292 292 293 293 290 288 289 288 285 280 272 265 259 254 251 245
130 182 208 310 335 355 167 216 195 178 168 152 293 225 185 132 110 187 257 190 171 192 224 257 272 260 244 185 199 230 231 178 153 125 98 52 13 345 328 317 313 316 322 326 324 320 314 290 266 260 257 241 226 223 220 219 219 218 220 225 236 251 260 266 271 275 280 284 286 286 287 289 292 292 289 287 288 288 287 282 275 269 259 251 248 243
158 183 173 144 295 217 216 221 200 185 186 187 195 198 196 191 156 196 251 221 177 202 215 218 264 270 251 130 125 108 88 86 87 75 13 344 333 318 309 300 299 316 325 318 309 306 308 298 284 273 259 242 231 227 224 225 223 219 221 228 239 249 257 263 265 268 271 273 275 278 281 284 289 291 289 286 285 285 285 281 276 270 261 252 247 242
132 148 163 170 197 209 222 213 170 163 186 204 223 211 198 192 175 187 217 216 192 224 240 221 264 272 260 129 87 352 20 321 309 317 310 310 304 287 278 281 293 308 312 305 298 298 302 297 294 284 261 244 237 232 229 230 227 223 227 233 242 254 262 265 264 266 268 269 271 273 274 277 284 288 288 287 286 285 283 279 275 270 263 255 248 244
111 134 185 200 183 26 12 26 36 37 49 310 264 226 193 203 196 191 193 184 187 202 217 216 244 267 268 178 225 285 287 281 283 289 293 289 278 263 262 273 284 291 296 297 293 293 297 301 308 308 290 264 242 233 232 233 228 226 232 237 246 257 264 264 264 265 266 267 269 269 269 273 279 282 285 287 286 284 280 276 273 269 263 256 249 245
173 179 177 170 173 329 346 349 347 356 26 241 254 227 215 219 181 146 146 148 237 211 197 207 231 261 273 255 221 266 265 257 275 284 278 274 271 267 268 272 275 279 287 289 285 285 299 310 316 312 298 274 243 233 235 235 232 232 235 240 247 255 259 258 260 263 265 266 267 266 268 271 274 278 281 283 284 282 277 274 272 270 264 258 251 246
158 204 175 171 198 209 209 219 218 224 213 231 238 221 222 216 177 154 149 167 224 226 213 225 239 260 278 278 272 274 265 257 276 290 285 283 282 280 277 273 273 275 277 277 274 281 301 311 311 305 293 270 245 238 241 240 237 237 238 241 246 251 253 253 257 264 266 267 266 267 268 268 270 277 280 279 280 278 275 273 272 270 265 259 254 248
100 269 217 207 228 220 210 224 178 133 141 202 226 220 222 224 199 180 185 201 220 235 235 237 240 255 270 275 279 279 273 274 287 286 285 285 286 287 286 282 281 277 272 269 271 281 293 295 300 303 293 270 250 244 246 245 242 240 241 244 245 247 249 251 258 266 267 267 267 268 270 268 269 275 278 277 276 275 273 272 272 270 266 261 255 250
95 247 237 244 263 265 271 286 316 38 154 217 231 225 223 230 216 195 216 228 223 235 247 240 235 245 260 271 278 277 278 289 294 276 283 293 298 302 302 298 290 277 269 272 280 286 288 287 289 294 290 273 254 248 248 247 245 243 244 247 246 246 249 252 261 268 269 268 268 270 272 270 267 271 275 276 275 273 271 270 270 269 266 261 256 250
109 226 222 221 257 271 278 284 296 309 292 270 263 255 240 228 221 216 227 234 227 229 249 254 252 252 258 269 274 277 286 297 296 294 300 304 305 307 305 299 289 276 275 281 285 285 284 284 283 282 281 275 261 255 255 254 249 245 247 249 248 247 250 255 261 267 269 270 272 274 273 268 265 268 273 276 275 273 271 269 268 267 265 261 257 249
130 209 206 192 241 262 263 266 274 277 279 279 272 273 273 253 234 226 230 237 237 240 252 261 264 263 259 261 272 284 291 292 293 298 299 296 294 295 294 291 287 283 281 281 282 283 284 283 281 276 272 270 265 263 266 266 259 251 248 251 252 251 252 255 259 264 269 273 275 275 271 266 264 267 272 276 276 274 271 268 266 264 262 260 256 248
161 198 177 159 214 257 253 253 258 253 256 264 267 271 272 268 261 248 241 240 240 246 250 252 261 266 263 261 273 283 286 288 292 295 293 290 289 288 288 289 289 287 283 281 281 283 284 282 279 276 272 268 268 267 269 273 273 264 255 252 253 253 253 254 258 263 269 274 275 273 269 265 264 266 272 275 275 274 271 267 264 262 260 258 254 248
174 193 131 136 201 248 241 240 248 245 244 253 258 256 249 249 252 250 246 240 234 240 245 247 252 260 266 273 277 277 280 284 290 291 289 288 288 288 288 288 287 286 284 283 284 284 285 283 280 279 277 275 274 274 274 276 278 275 269 264 262 259 254 252 256 264 270 273 272 269 269 267 265 266 270 273 273 272 270 266 262 260 259 257 254 250
166 165 142 152 198 248 242 226 226 234 228 224 234 237 235 235 242 248 249 243 238 235 236 242 245 252 271 283 277 270 273 278 283 284 283 285 287 289 287 284 284 284 285 286 287 288 287 287 286 285 284 282 280 280 280 279 277 277 277 276 275 269 259 252 254 264 270 269 266 267 271 270 267 267 270 271 271 270 268 265 261 258 258 256 253 251
184 178 180 169 186 249 245 192 160 226 237 233 229 225 225 229 233 237 240 240 238 236 237 247 257 262 266 267 265 266 269 272 276 279 280 281 283 286 288 286 284 284 287 289 290 292 292 291 291 290 288 288 287 285 283 281 279 278 278 277 276 271 260 252 254 263 267 264 262 267 271 270 268 269 270 270 269 267 265 264 260 257 255 253 250 246
187 190 201 193 193 256 255 165 201 233 232 242 246 223 220 226 225 229 238 242 242 242 241 245 253 255 254 255 259 263 267 271 275 278 280 279 279 283 287 286 285 286 289 292 293 295 297 296 295 295 294 294 293 291 289 285 282 281 279 277 273 267 259 255 256 261 264 265 268 271 270 269 269 270 269 267 265 264 263 261 257 254 251 247 244 241
187 194 199 207 206 250 253 215 230 251 282 285 275 246 230 230 228 233 245 249 247 242 238 240 244 247 251 256 260 264 271 277 278 276 275 276 278 285 287 286 288 290 292 294 296 299 302 302 300 300 299 298 298 297 295 292 287 283 279 275 271 267 264 262 263 266 270 272 273 273 272 271 270 269 266 264 263 263 261 258 255 252 248 243 238 235
197 204 195 212 207 211 239 241 253 291 300 284 268 248 219 207 206 218 239 253 247 233 231 235 241 247 252 257 264 271 274 278 282 276 276 279 288 292 291 291 294 296 297 299 301 302 304 305 303 302 302 301 300 299 297 293 287 282 277 274 272 272 272 272 272 273 273 274 275 275 274 271 268 266 264 263 263 262 260 257 254 250 246 240 234 230
197 200 193 211 210 201 233 250 256 261 260 257 257 256 246 234 221 197 217 254 247 235 250 253 255 272 278 279 291 297 287 278 275 276 282 302 330 313 303 304 305 307 307 306 305 305 304 304 305 305 304 302 301 300 298 293 287 282 278 277 277 276 276 274 273 273 273 275 276 274 271 268 264 263 263 263 262 261 259 257 253 249 243 237 232 228
201 203 198 213 225 215 225 238 241 244 248 249 255 263 267 251 231 197 215 254 270 14 15 21 1 337 341 335 337 343 324 281 255 283 297 317 330 322 315 313 312 313 313 310 309 308 307 306 306 306 306 304 302 300 298 294 290 286 281 279 278 275 273 272 272 274 274 274 272 268 265 263 262 262 262 261 260 258 256 252 248 242 235 228 225 223
204 207 205 216 227 226 232 241 241 246 259 259 256 267 340 353 290 221 234 254 331 352 7 27 2 337 340 337 341 356 335 280 286 302 309 314 316 315 313 311 312 312 310 309 308 308 308 308 308 307 307 306 304 300 296 294 292 288 283 278 274 272 271 272 272 272 270 266 264 262 262 261 259 258 257 255 254 251 247 243 237 231 224 219 216 216
197 209 213 219 226 228 233 242 248 251 253 256 268 287 301 288 262 249 236 269 330 327 336 1 350 329 329 333 335 320 294 300 305 309 312 314 314 314 312 310 311 310 308 308 308 308 311 312 310 309 308 308 306 301 295 291 290 287 282 276 273 271 271 270 268 265 263 262 262 262 261 259 256 254 251 248 246 243 238 233 227 220 214 211 210 211
181 198 212 216 224 232 232 235 248 257 253 256 284 317 19 159 207 244 286 323 321 320 326 334 335 328 321 326 324 311 308 313 315 316 317 315 313 314 312 311 311 310 309 308 307 308 311 312 313 313 312 310 306 299 292 289 287 285 281 276 273 271 269 266 264 263 263 263 263 262 260 258 254 250 247 243 239 234 228 222 215 209 204 203 205 206
189 195 213 209 212 223 228 234 243 243 16 24 0 354 63 86 248 275 319 321 323 327 327 326 327 334 333 325 322 319 319 319 318 319 318 314 312 313 312 311 310 308 307 306 305 305 307 308 310 312 312 310 303 294 289 286 284 282 279 275 272 269 267 264 263 263 263 262 262 260 256 253 250 245 241 237 231 225 219 213 206 201 197 197 199 202
209 210 220 215 198 199 222 233 215 195 175 32 28 249 285 319 305 301 314 320 331 340 332 324 321 322 324 324 321 320 319 318 318 319 319 316 314 313 312 311 309 307 305 303 302 303 303 304 304 304 306 305 298 289 285 283 280 277 273 271 269 267 263 261 259 258 257 255 253 250 247 243 239 234 229 225 220 214 207 201 197 194 192 193 195 197
208 200 199 228 226 210 217 227 214 206 233 12 12 291 301 324 319 311 306 309 326 334 329 320 318 320 322 321 318 317 316 316 318 319 319 317 315 313 313 314 313 312 310 306 303 302 301 300 299 298 299 298 291 283 280 278 275 271 268 268 267 262 258 254 252 250 247 245 243 240 237 232 225 221 217 212 208 204 199 195 192 189 190 191 193 193
220 200 95 147 259 275 269 247 237 244 342 352 343 327 320 324 324 323 320 315 323 327 324 318 316 319 320 318 313 311 312 314 315 316 317 318 314 311 313 316 319 320 319 315 312 307 303 300 297 295 294 291 284 279 277 275 272 269 268 266 261 255 250 246 244 242 238 237 234 230 227 223 216 210 204 199 195 193 193 192 189 189 192 192 192 192
270 5 80 148 260 272 271 222 138 340 324 323 324 322 316 313 318 324 319 316 319 320 318 317 316 317 318 317 312 308 309 312 312 312 315 315 311 308 309 312 315 318 320 322 321 316 310 304 298 293 289 284 280 278 276 273 271 268 265 259 252 247 244 240 237 234 230 226 223 219 215 211 208 202 195 190 187 185 184 184 186 190 194 195 195 196
278 31 44 228 216 227 256 299 304 301 306 312 312 312 313 315 317 317 314 314 315 315 314 314 315 315 315 315 313 309 307 308 309 311 313 313 309 306 306 307 308 311 313 317 320 319 315 308 300 293 286 281 279 278 276 273 270 265 258 251 245 240 238 234 229 224 219 213 210 207 202 199 198 194 187 183 181 180 179 179 183 188 192 194 197 199
282 343 280 253 264 267 281 299 300 299 305 312 307 305 308 310 310 310 310 311 311 311 311 311 313 316 316 315 314 311 307 306 308 311 312 312 308 306 305 304 305 307 309 310 312 313 313 309 302 295 287 282 279 276 273 269 264 258 250 243 237 232 229 226 218 209 205 201 198 196 193 190 190 188 185 181 178 176 175 176 179 184 187 187 187 186
271 264 237 245 273 274 267 280 297 298 291 292 299 302 302 305 306 306 308 310 309 309 310 310 312 315 315 314 315 314 309 308 310 311 310 310 309 306 304 302 302 304 306 307 306 306 306 304 300 294 288 283 278 272 268 262 257 250 239 228 221 216 215 214 206 196 191 191 190 190 190 188 186 186 186 185 182 179 176 173 172 174 175 175 171 167
231 228 229 222 235 263 277 288 294 290 280 286 294 297 298 301 304 304 305 307 306 307 308 310 312 314 313 312 313 313 311 311 313 312 309 307 308 307 305 302 300 300 302 304 303 302 302 300 295 290 285 279 272 266 259 255 250 240 225 211 201 196 198 200 197 190 186 187 189 190 191 189 187 187 186 185 186 185 181 175 168 164 162 161 159 158